This is the latest recevied weather packets stored in our database for station/object SR2GKG-13. If no packets are shown the sender has not sent any weather packets the latest 10 day(s).
| Time | Temp. | Humidity | Pressure | Rain* | Wind** | Luminosity | Snow |
|---|---|---|---|---|---|---|---|
| 1777978469 | 20° C | 65% | 997.5 hPa | - | - | - | - |
| 1777977569 | 20° C | 64% | 997.6 hPa | - | - | - | - |
| 1777976669 | 19.44° C | 67% | 997.6 hPa | - | - | - | - |
| 1777975769 | 18.33° C | 74% | 997.6 hPa | - | - | - | - |
| 1777974869 | 17.78° C | 75% | 998 hPa | - | - | - | - |
| 1777973969 | 17.78° C | 76% | 998.2 hPa | - | - | - | - |
| 1777973069 | 17.22° C | 78% | 998 hPa | - | - | - | - |
| 1777972169 | 17.22° C | 74% | 998.2 hPa | - | - | - | - |
| 1777971269 | 17.78° C | 71% | 998.1 hPa | - | - | - | - |
| 1777970368 | 18.33° C | 68% | 998.1 hPa | - | - | - | - |
| 1777969468 | 18.33° C | 71% | 998.3 hPa | - | - | - | - |
| 1777968568 | 18.33° C | 70% | 998.4 hPa | - | - | - | - |
| 1777967668 | 17.22° C | 75% | 998.5 hPa | - | - | - | - |
| 1777966768 | 16.67° C | 78% | 998.5 hPa | - | - | - | - |
| 1777965868 | 15.56° C | 84% | 998.6 hPa | - | - | - | - |
| 1777964968 | 15.56° C | 83% | 998.7 hPa | - | - | - | - |
| 1777964068 | 15° C | 87% | 998.8 hPa | - | - | - | - |
| 1777963168 | 15° C | 88% | 998.8 hPa | - | - | - | - |
| 1777962267 | 14.44° C | 93% | 999.1 hPa | - | - | - | - |
| 1777961367 | 13.89° C | 97% | 998.7 hPa | - | - | - | - |
| 1777960467 | 13.33° C | 98% | 998.5 hPa | - | - | - | - |
| 1777959567 | 12.78° C | 100% | 999.3 hPa | - | - | - | - |
| 1777958667 | 12.22° C | 99% | 999.6 hPa | - | - | - | - |
| 1777957767 | 12.22° C | 96% | 1000 hPa | - | - | - | - |
| 1777956867 | 12.78° C | 89% | 1000.1 hPa | - | - | - | - |
* Rain since midnight (hover to see other rain measurements)
** Current wind speed in m/s (hover to see current wind gust speed)